Total_Precipitation_Accumulation
0.01 0.03 0.11 0.21 0.29 0.41 0.49 0.29 0.19 0.14 0.05 0.04 0.04 0.02 0.02 0.01 0.02 0.06 0.01 0.00 0.00 0.00 0.01 0.02 0.03 0.02 0.02 0.02 0.03 0.05 0.04 0.03 0.03 0.05 0.05 0.04 0.03 0.03 0.03 0.04 0.10 0.12 0.10 0.07 0.04 0.03 0.03 0.04 0.04
0.01 0.03 0.12 0.17 0.31 0.66 0.52 0.25 0.17 0.17 0.04 0.03 0.05 0.03 0.02 0.01 0.00 0.01 0.00 0.00 0.00 0.00 0.00 0.01 0.02 0.02 0.02 0.01 0.02 0.03 0.04 0.05 0.06 0.08 0.06 0.05 0.05 0.04 0.04 0.04 0.07 0.10 0.08 0.07 0.04 0.02 0.02 0.02 0.02
0.02 0.04 0.09 0.12 0.35 0.59 0.39 0.23 0.15 0.09 0.04 0.04 0.03 0.03 0.01 0.01 0.00 0.00 0.00 0.00 0.00 0.00 0.00 0.02 0.02 0.02 0.01 0.01 0.02 0.03 0.04 0.06 0.08 0.09 0.08 0.08 0.07 0.06 0.06 0.06 0.07 0.07 0.05 0.05 0.05 0.04 0.03 0.02 0.01
0.01 0.04 0.07 0.11 0.20 0.23 0.22 0.20 0.09 0.10 0.09 0.05 0.04 0.04 0.02 0.01 0.00 0.00 0.00 0.00 0.00 0.00 0.00 0.02 0.02 0.02 0.02 0.02 0.02 0.03 0.04 0.05 0.07 0.06 0.06 0.06 0.06 0.08 0.08 0.07 0.09 0.10 0.09 0.06 0.07 0.07 0.07 0.05 0.03
0.00 0.02 0.04 0.08 0.16 0.14 0.14 0.17 0.12 0.15 0.11 0.06 0.06 0.08 0.04 0.01 0.01 0.00 0.00 0.00 0.00 0.00 0.01 0.02 0.02 0.02 0.02 0.02 0.02 0.03 0.03 0.04 0.05 0.05 0.04 0.04 0.04 0.06 0.06 0.07 0.07 0.08 0.11 0.10 0.10 0.10 0.08 0.09 0.08
0.00 0.01 0.03 0.08 0.10 0.10 0.11 0.15 0.19 0.25 0.20 0.10 0.09 0.17 0.10 0.02 0.01 0.01 0.00 0.00 0.00 0.00 0.01 0.02 0.03 0.02 0.02 0.02 0.02 0.03 0.03 0.04 0.04 0.04 0.03 0.02 0.03 0.04 0.05 0.06 0.05 0.04 0.05 0.06 0.09 0.13 0.11 0.09 0.13
0.00 0.01 0.02 0.05 0.05 0.07 0.09 0.11 0.19 0.32 0.35 0.23 0.18 0.17 0.07 0.02 0.01 0.01 0.01 0.01 0.01 0.01 0.01 0.02 0.02 0.03 0.03 0.03 0.03 0.03 0.03 0.04 0.04 0.03 0.03 0.03 0.02 0.03 0.03 0.03 0.03 0.03 0.03 0.05 0.06 0.07 0.08 0.08 0.12
0.00 0.00 0.01 0.02 0.02 0.04 0.06 0.09 0.13 0.20 0.34 0.27 0.24 0.11 0.04 0.02 0.02 0.01 0.02 0.03 0.03 0.03 0.02 0.02 0.02 0.03 0.03 0.03 0.03 0.04 0.04 0.04 0.04 0.05 0.05 0.05 0.04 0.03 0.03 0.04 0.04 0.04 0.05 0.05 0.07 0.09 0.09 0.11 0.12
0.00 0.00 0.01 0.01 0.02 0.03 0.05 0.08 0.11 0.20 0.24 0.17 0.22 0.18 0.07 0.03 0.03 0.03 0.04 0.06 0.07 0.07 0.05 0.04 0.03 0.03 0.03 0.03 0.03 0.04 0.05 0.06 0.06 0.08 0.09 0.08 0.06 0.07 0.10 0.09 0.12 0.14 0.18 0.20 0.23 0.27 0.28 0.27 0.20
0.00 0.00 0.00 0.00 0.01 0.02 0.04 0.06 0.07 0.14 0.21 0.19 0.16 0.19 0.11 0.06 0.06 0.05 0.06 0.07 0.13 0.10 0.08 0.07 0.05 0.04 0.04 0.05 0.05 0.07 0.07 0.09 0.11 0.17 0.18 0.17 0.18 0.17 0.12 0.15 0.26 0.42 0.55 0.59 0.71 0.83 0.68 0.53 0.53
0.00 0.00 0.00 0.00 0.00 0.01 0.02 0.03 0.04 0.06 0.12 0.15 0.14 0.21 0.16 0.09 0.05 0.07 0.10 0.17 0.18 0.17 0.15 0.13 0.10 0.08 0.10 0.11 0.14 0.16 0.15 0.21 0.25 0.30 0.35 0.35 0.30 0.25 0.20 0.25 0.43 0.66 0.76 0.77 1.10 1.27 0.90 0.95 1.18
0.00 0.00 0.00 0.00 0.00 0.00 0.00 0.01 0.02 0.06 0.14 0.21 0.20 0.36 0.28 0.08 0.08 0.12 0.16 0.27 0.34 0.39 0.32 0.30 0.28 0.28 0.28 0.28 0.26 0.26 0.28 0.33 0.39 0.42 0.49 0.58 0.62 0.51 0.48 0.54 0.64 0.81 0.89 1.09 1.22 1.39 1.25 1.33 1.32
0.00 0.00 0.00 0.00 0.00 0.00 0.00 0.00 0.01 0.08 0.19 0.28 0.34 0.33 0.35 0.20 0.18 0.18 0.25 0.38 0.55 0.60 0.49 0.47 0.45 0.45 0.46 0.53 0.57 0.56 0.57 0.61 0.65 0.71 0.78 0.86 0.98 0.94 0.92 0.86 0.93 0.90 1.05 1.24 1.48 1.44 1.66 1.70 1.55
0.00 0.00 0.00 0.00 0.00 0.00 0.00 0.01 0.02 0.08 0.15 0.22 0.35 0.47 0.40 0.30 0.30 0.25 0.28 0.49 0.71 0.69 0.60 0.64 0.65 0.75 0.86 0.86 0.91 1.00 1.07 1.09 1.10 1.09 1.12 1.18 1.32 1.47 1.36 1.18 1.21 1.13 1.24 1.52 1.73 1.70 1.99 1.88 1.80
0.00 0.00 0.00 0.00 0.00 0.00 0.00 0.02 0.05 0.11 0.17 0.26 0.31 0.42 0.45 0.40 0.32 0.26 0.32 0.46 0.62 0.64 0.66 0.82 1.07 1.25 1.34 1.38 1.45 1.45 1.50 1.45 1.41 1.59 1.73 1.79 1.79 1.81 1.67 1.46 1.37 1.46 1.60 1.79 1.83 1.88 2.07 1.89 1.82
0.00 0.00 0.00 0.00 0.01 0.01 0.01 0.05 0.11 0.25 0.22 0.25 0.31 0.44 0.54 0.53 0.43 0.41 0.45 0.52 0.65 0.76 0.87 1.10 1.38 1.68 1.85 1.88 1.90 1.94 1.89 1.81 1.91 2.01 2.07 2.07 1.99 1.93 1.97 1.71 1.52 1.77 1.90 2.02 2.10 2.07 2.07 2.02 1.93
0.00 0.00 0.00 0.01 0.01 0.01 0.02 0.06 0.12 0.28 0.30 0.34 0.42 0.45 0.52 0.53 0.54 0.57 0.62 0.72 0.93 1.20 1.43 1.67 1.74 1.84 2.03 2.24 2.36 2.22 2.13 2.03 2.00 2.02 2.01 1.99 1.97 1.98 2.18 1.95 1.88 2.04 2.21 2.14 2.01 2.23 2.30 2.13 2.02
0.00 0.01 0.01 0.01 0.02 0.02 0.03 0.09 0.19 0.32 0.40 0.50 0.54 0.59 0.68 0.74 0.88 0.98 1.08 1.22 1.36 1.69 1.95 1.99 1.97 2.18 2.66 2.99 2.90 2.62 2.28 2.09 2.00 1.91 1.84 1.88 2.01 2.10 2.33 2.10 2.11 2.28 2.37 2.36 2.36 2.40 2.36 2.21 2.19
0.01 0.02 0.02 0.02 0.05 0.06 0.09 0.17 0.36 0.52 0.58 0.62 0.80 1.02 1.24 1.37 1.44 1.54 1.69 1.85 1.93 1.97 2.10 2.20 2.48 2.87 3.07 3.05 3.03 2.98 2.66 2.37 2.05 1.82 1.81 1.90 1.93 2.08 2.32 2.06 2.33 2.46 2.40 2.43 2.44 2.55 2.41 2.24 2.37
0.03 0.04 0.03 0.03 0.06 0.11 0.18 0.27 0.44 0.68 0.73 0.67 0.67 0.78 0.96 1.33 1.56 1.71 1.86 1.96 1.92 2.04 2.27 2.54 2.83 3.14 3.03 3.17 3.37 3.30 3.06 2.48 2.11 1.92 1.89 1.95 1.99 2.04 2.17 2.41 2.46 2.53 2.50 2.49 2.44 2.44 2.23 2.02 2.26
0.03 0.04 0.03 0.05 0.09 0.09 0.16 0.36 0.52 0.75 0.85 0.74 0.70 0.72 0.72 0.98 1.29 1.42 1.51 1.62 1.86 2.20 2.56 2.81 2.99 3.05 2.99 3.15 3.27 2.99 2.75 2.32 2.19 2.17 2.06 2.01 2.11 2.16 2.29 2.44 2.51 2.42 2.34 2.34 2.42 2.32 2.17 1.98 2.02
0.03 0.03 0.03 0.04 0.07 0.10 0.16 0.45 0.79 1.03 0.96 0.78 0.77 0.82 0.98 1.11 1.14 1.24 1.35 1.58 1.94 2.28 2.64 2.96 2.95 2.92 2.88 2.99 3.05 2.88 2.60 2.32 2.22 2.24 2.03 1.89 1.87 1.93 2.04 2.11 2.26 2.31 2.30 2.24 2.20 2.15 2.14 2.03 1.89
0.04 0.03 0.03 0.05 0.06 0.08 0.18 0.43 0.87 1.09 0.96 0.77 0.78 0.94 1.12 1.11 1.05 1.17 1.30 1.51 1.71 2.02 2.32 2.59 2.78 2.82 2.75 2.72 2.68 2.64 2.44 2.19 2.06 2.00 1.88 1.83 1.86 1.79 1.78 1.88 2.06 2.12 2.04 2.01 2.14 2.26 2.21 2.04 1.87
0.04 0.04 0.05 0.08 0.10 0.17 0.22 0.36 0.73 0.99 0.91 0.74 0.75 0.88 1.03 1.19 1.21 1.24 1.44 1.56 1.64 1.83 2.10 2.27 2.40 2.44 2.40 2.32 2.28 2.29 2.22 2.17 2.02 1.87 1.88 1.92 1.85 1.73 1.67 1.69 1.80 1.86 1.84 1.80 1.83 1.92 1.94 1.90 1.94
0.04 0.05 0.13 0.27 0.44 0.45 0.36 0.48 0.82 0.80 0.69 0.63 0.67 0.84 1.06 1.27 1.29 1.38 1.54 1.63 1.69 1.72 1.77 1.83 1.87 1.92 1.86 1.78 1.74 1.77 1.79 1.81 1.74 1.72 1.78 1.83 1.76 1.67 1.64 1.58 1.53 1.53 1.55 1.63 1.76 1.76 1.77 1.83 1.91
0.07 0.10 0.24 0.25 0.27 0.35 0.44 0.68 0.81 0.67 0.58 0.58 0.61 0.74 0.98 1.10 1.16 1.27 1.35 1.27 1.21 1.23 1.28 1.31 1.32 1.33 1.30 1.33 1.36 1.39 1.49 1.53 1.52 1.63 1.65 1.69 1.67 1.62 1.51 1.38 1.33 1.32 1.34 1.42 1.57 1.72 1.72 1.79 1.82
0.16 0.20 0.18 0.27 0.23 0.31 0.46 0.66 0.68 0.58 0.68 0.72 0.75 0.80 0.84 0.84 0.81 0.84 0.86 0.89 0.95 0.97 0.97 0.97 1.01 1.02 0.97 0.96 1.06 1.13 1.20 1.27 1.29 1.39 1.42 1.41 1.40 1.34 1.30 1.27 1.25 1.21 1.23 1.27 1.29 1.42 1.43 1.50 1.55
0.17 0.27 0.37 0.52 0.52 0.46 0.43 0.68 0.89 0.91 0.93 0.89 1.00 1.19 1.03 0.74 0.62 0.59 0.59 0.63 0.67 0.70 0.75 0.79 0.88 0.97 0.95 0.88 0.88 0.90 0.95 0.99 1.09 1.16 1.18 1.22 1.25 1.22 1.16 1.17 1.17 1.11 1.09 1.10 1.12 1.16 1.22 1.19 1.24
0.25 0.32 0.42 0.53 0.56 0.55 0.53 0.68 0.63 0.90 0.97 0.97 0.99 1.00 0.83 0.54 0.38 0.33 0.34 0.38 0.46 0.59 0.67 0.69 0.80 0.88 0.84 0.74 0.73 0.77 0.79 0.83 0.88 0.95 0.96 1.02 1.08 1.15 1.16 1.13 1.08 0.99 0.92 0.91 0.92 0.94 1.04 1.04 1.03
0.20 0.32 0.43 0.54 0.54 0.55 0.58 0.70 0.49 0.64 0.70 0.70 0.73 0.57 0.44 0.31 0.23 0.21 0.21 0.25 0.33 0.42 0.47 0.55 0.64 0.74 0.76 0.72 0.72 0.75 0.78 0.78 0.78 0.80 0.79 0.81 0.86 0.89 0.91 0.91 0.97 1.00 0.98 0.94 0.92 0.88 0.87 0.91 0.92